TimeEDT,TemperatureF,Dew PointF,Humidity,Sea Level PressureIn,VisibilityMPH,Wind Direction,Wind SpeedMPH,Gust SpeedMPH,PrecipitationIn,Events,Conditions,WindDirDegrees,DateUTC
12:25 AM,41.2,-9999,N/A,30.23,-9999.0,Calm,Calm,-,N/A,,Unknown,0,2012-10-04 04:25:00
1:25 AM,39.7,-9999,N/A,30.24,-9999.0,Calm,Calm,-,N/A,,Unknown,0,2012-10-04 05:25:00
2:25 AM,38.8,-9999,N/A,30.24,-9999.0,Calm,Calm,-,N/A,,Unknown,0,2012-10-04 06:25:00
3:25 AM,37.8,-9999,N/A,30.24,-9999.0,Calm,Calm,-,N/A,,Unknown,0,2012-10-04 07:25:00
4:25 AM,38.7,-9999,N/A,30.25,-9999.0,Calm,Calm,-,0.00,,Unknown,0,2012-10-04 08:25:00
5:25 AM,37.8,-9999,N/A,30.25,-9999.0,Calm,Calm,-,N/A,,Unknown,0,2012-10-04 09:25:00
6:25 AM,38.3,-9999,N/A,30.25,-9999.0,Calm,Calm,-,N/A,,Unknown,0,2012-10-04 10:25:00
7:25 AM,39.4,-9999,N/A,30.25,-9999.0,Calm,Calm,-,N/A,,Unknown,0,2012-10-04 11:25:00
8:25 AM,46.0,-9999,N/A,30.25,-9999.0,Calm,Calm,-,0.00,,Unknown,0,2012-10-04 12:25:00
9:25 AM,47.8,44.2,87,30.25,-9999.0,Calm,Calm,-,N/A,,Unknown,0,2012-10-04 13:25:00
10:25 AM,52.7,46.9,81,30.22,-9999.0,Variable,3.5,-,N/A,,Unknown,0,2012-10-04 14:25:00
11:25 AM,58.5,47.7,67,30.21,-9999.0,Variable,2.3,-,N/A,,Unknown,0,2012-10-04 15:25:00
12:25 PM,58.5,46.6,65,30.19,-9999.0,Variable,2.3,-,N/A,,Unknown,0,2012-10-04 16:25:00
1:26 PM,59.4,45.3,60,30.14,-9999.0,Variable,5.8,13.8,N/A,,Unknown,0,2012-10-04 17:26:00
2:25 PM,58.6,47.1,66,30.12,-9999.0,Variable,3.5,13.8,N/A,,Unknown,0,2012-10-04 18:25:00
3:25 PM,58.1,48.4,70,30.09,-9999.0,Calm,Calm,-,N/A,,Unknown,0,2012-10-04 19:25:00
4:25 PM,54.7,51.3,88,30.09,-9999.0,Variable,3.5,-,N/A,,Unknown,0,2012-10-04 20:25:00
5:25 PM,52.7,-9999,N/A,30.09,-9999.0,Variable,4.6,-,0.10,,Unknown,0,2012-10-04 21:25:00
6:25 PM,52.5,-9999,N/A,30.06,-9999.0,Variable,3.5,-,0.12,,Unknown,0,2012-10-04 22:25:00
7:25 PM,52.7,-9999,N/A,30.03,-9999.0,Variable,3.5,-,0.07,,Unknown,0,2012-10-04 23:25:00
8:25 PM,52.7,-9999,N/A,30.03,-9999.0,Calm,Calm,-,0.01,,Unknown,0,2012-10-05 00:25:00
9:25 PM,52.7,-9999,N/A,30.01,-9999.0,Calm,Calm,-,0.03,,Unknown,0,2012-10-05 01:25:00
10:25 PM,52.7,-9999,N/A,30.00,-9999.0,Variable,4.6,-,0.07,,Unknown,0,2012-10-05 02:25:00
11:25 PM,53.2,-9999,N/A,29.98,-9999.0,Variable,3.5,-,0.02,,Unknown,0,2012-10-05 03:25:00